MSR21 HESN-HESH

Flight info

Callsign MSR21
Flight time 0h 46m
Altitude 30000
Route ASN V738 BOVAR A727 LXR/N0417F290 L604 ASRAB/N0404F280 R650 SHM
Aircraft B738/M-SDE2E3FGHIRWXY/LB1

Departure

Time 2026-05-05 17:27
Airport Aswan International Airport (HESN)

Arrival

Time 2026-05-05 18:14
Airport Sharm El Sheikh International Airport (HESH)
Time Latitude Longitude Altitude Speed Heading
2026-05-05 17:02 23.96336 32.82424 652 ft 0 kts 121°
2026-05-05 17:19 23.96346 32.82406 652 ft 4 kts 122°
2026-05-05 17:20 23.96361 32.82381 651 ft 4 kts 126°
2026-05-05 17:20 23.96378 32.82359 651 ft 4 kts 142°
2026-05-05 17:20 23.96398 32.82348 651 ft 2 kts 172°
2026-05-05 17:20 23.96424 32.82344 651 ft 4 kts 173°
2026-05-05 17:21 23.96451 32.82340 650 ft 4 kts 171°
2026-05-05 17:21 23.96456 32.82339 650 ft 0 kts 171°
2026-05-05 17:23 23.96421 32.82342 651 ft 13 kts 193°
2026-05-05 17:23 23.96389 32.82242 651 ft 15 kts 265°
2026-05-05 17:24 23.96341 32.82161 652 ft 14 kts 179°
2026-05-05 17:24 23.96245 32.82176 653 ft 14 kts 170°
2026-05-05 17:24 23.96153 32.82194 654 ft 14 kts 170°
2026-05-05 17:24 23.96006 32.82220 657 ft 23 kts 171°
2026-05-05 17:25 23.95849 32.82246 658 ft 22 kts 171°
2026-05-05 17:25 23.95799 32.82254 659 ft 22 kts 171°
2026-05-05 17:25 23.95477 32.82310 662 ft 31 kts 170°
2026-05-05 17:25 23.95270 32.82347 665 ft 29 kts 171°
2026-05-05 17:26 23.95075 32.82380 667 ft 28 kts 171°
2026-05-05 17:26 23.94963 32.82380 669 ft 9 kts 224°
2026-05-05 17:26 23.94942 32.82316 670 ft 9 kts 268°
2026-05-05 17:26 23.94950 32.82268 669 ft 11 kts 304°
2026-05-05 17:27 23.95034 32.82238 667 ft 22 kts 349°
2026-05-05 17:27 23.95466 32.82162 661 ft 102 kts 351°
2026-05-05 17:27 23.96404 32.81998 669 ft 167 kts 351°
2026-05-05 17:27 23.98029 32.81852 1422 ft 191 kts 353°
2026-05-05 17:28 23.99333 32.81502 2292 ft 195 kts 342°
2026-05-05 17:28 24.00203 32.81088 2645 ft 211 kts 328°
2026-05-05 17:28 24.01490 32.80147 2874 ft 234 kts 325°
2026-05-05 17:28 24.02881 32.79141 3333 ft 244 kts 326°
2026-05-05 17:29 24.04334 32.78143 3923 ft 249 kts 328°
2026-05-05 17:29 24.05869 32.77135 4306 ft 266 kts 329°
2026-05-05 17:29 24.07504 32.76103 4943 ft 275 kts 330°
2026-05-05 17:29 24.09176 32.75078 5819 ft 277 kts 330°
2026-05-05 17:30 24.10880 32.74058 6653 ft 280 kts 331°
2026-05-05 17:30 24.12606 32.73047 7433 ft 284 kts 334°
2026-05-05 17:30 24.14539 32.72588 8149 ft 290 kts
2026-05-05 17:30 24.16529 32.72983 8918 ft 293 kts 12°
2026-05-05 17:31 24.18528 32.73482 9619 ft 297 kts 13°
2026-05-05 17:31 24.20559 32.73996 10290 ft 303 kts 13°
2026-05-05 17:31 24.22686 32.74525 10503 ft 324 kts 12°
2026-05-05 17:31 24.24958 32.75075 10681 ft 344 kts 12°
2026-05-05 17:32 24.27342 32.75642 11079 ft 355 kts 12°
2026-05-05 17:32 24.29765 32.76210 11725 ft 355 kts
2026-05-05 17:32 24.32150 32.76763 12431 ft 360 kts
2026-05-05 17:32 24.34650 32.77332 12824 ft 372 kts
2026-05-05 17:33 24.35985 32.77635 13143 ft 374 kts
2026-05-05 17:33 24.36410 32.77731 13255 ft 374 kts
2026-05-05 17:33 24.38964 32.78311 14002 ft 374 kts
2026-05-05 17:33 24.41517 32.78893 14679 ft 376 kts
2026-05-05 17:34 24.44098 32.79481 15291 ft 380 kts
2026-05-05 17:34 24.46699 32.80073 15916 ft 383 kts
2026-05-05 17:34 24.49318 32.80669 16521 ft 387 kts
2026-05-05 17:34 24.51966 32.81271 17121 ft 389 kts
2026-05-05 17:35 24.54627 32.81876 17703 ft 393 kts
2026-05-05 17:35 24.57313 32.82488 18266 ft 396 kts
2026-05-05 17:35 24.60023 32.83105 18817 ft 399 kts
2026-05-05 17:35 24.62756 32.83727 19332 ft 403 kts
2026-05-05 17:36 24.65509 32.84355 19855 ft 406 kts
2026-05-05 17:36 24.68288 32.84988 20349 ft 410 kts
2026-05-05 17:36 24.71094 32.85628 20821 ft 414 kts
2026-05-05 17:36 24.73923 32.86274 21295 ft 417 kts
2026-05-05 17:37 24.76769 32.86923 21758 ft 420 kts
2026-05-05 17:37 24.79645 32.87579 22201 ft 423 kts
2026-05-05 17:37 24.82537 32.88241 22640 ft 426 kts
2026-05-05 17:37 24.85450 32.88907 23074 ft 429 kts
2026-05-05 17:38 24.88382 32.89579 23497 ft 432 kts
2026-05-05 17:38 24.91331 32.90254 23904 ft 435 kts
2026-05-05 17:38 24.94303 32.90933 24291 ft 438 kts
2026-05-05 17:38 24.97297 32.91619 24689 ft 441 kts
2026-05-05 17:39 25.00310 32.92310 25068 ft 443 kts
2026-05-05 17:39 25.03336 32.93004 25419 ft 446 kts
2026-05-05 17:39 25.06387 32.93705 25788 ft 449 kts
2026-05-05 17:39 25.09458 32.94410 26150 ft 451 kts
2026-05-05 17:40 25.12528 32.95116 26585 ft 451 kts
2026-05-05 17:40 25.15601 32.95823 27078 ft 450 kts
2026-05-05 17:40 25.18667 32.96530 27542 ft 449 kts
2026-05-05 17:40 25.21728 32.97234 27981 ft 449 kts
2026-05-05 17:41 25.24790 32.97939 28398 ft 450 kts
2026-05-05 17:41 25.27813 32.98635 28826 ft 449 kts
2026-05-05 17:41 25.30868 32.99339 29281 ft 448 kts
2026-05-05 17:41 25.33914 33.00041 29749 ft 447 kts
2026-05-05 17:42 25.36956 33.00743 29992 ft 449 kts
2026-05-05 17:42 25.43113 33.02161 29988 ft 451 kts
2026-05-05 17:43 25.49199 33.03572 29992 ft 445 kts
2026-05-05 17:43 25.55268 33.04975 30001 ft 446 kts
2026-05-05 17:44 25.61363 33.06386 29989 ft 448 kts
2026-05-05 17:44 25.67472 33.07800 29989 ft 448 kts
2026-05-05 17:45 25.73577 33.09216 29993 ft 448 kts
2026-05-05 17:45 25.79658 33.10751 29982 ft 452 kts 13°
2026-05-05 17:46 25.85483 33.13494 29990 ft 456 kts 19°
2026-05-05 17:46 25.91242 33.16428 29988 ft 455 kts 19°
2026-05-05 17:47 25.97003 33.19322 29992 ft 454 kts 19°
2026-05-05 17:47 26.02777 33.22186 29988 ft 454 kts 18°
2026-05-05 17:48 26.08455 33.25000 29950 ft 435 kts 18°
2026-05-05 17:48 26.11204 33.26365 29653 ft 429 kts 18°
2026-05-05 17:48 26.13913 33.27707 29359 ft 425 kts 18°
2026-05-05 17:48 26.16606 33.29040 28981 ft 422 kts 18°
2026-05-05 17:49 26.19279 33.30363 28620 ft 419 kts 18°
2026-05-05 17:49 26.21932 33.31677 28237 ft 415 kts 18°
2026-05-05 17:49 26.24565 33.32983 27868 ft 413 kts 18°
2026-05-05 17:49 26.27182 33.34281 27501 ft 410 kts 18°
2026-05-05 17:50 26.29780 33.35573 27124 ft 408 kts 18°
2026-05-05 17:50 26.32330 33.36841 26761 ft 406 kts 18°
2026-05-05 17:50 26.34903 33.38121 26386 ft 403 kts 18°
2026-05-05 17:50 26.37453 33.39390 26030 ft 401 kts 18°
2026-05-05 17:51 26.39990 33.40653 25660 ft 398 kts 19°
2026-05-05 17:51 26.42513 33.41910 25304 ft 396 kts 18°
2026-05-05 17:51 26.45021 33.43160 24944 ft 393 kts 18°
2026-05-05 17:51 26.47490 33.44392 24765 ft 386 kts 18°
2026-05-05 17:52 26.49934 33.45614 24421 ft 383 kts 18°
2026-05-05 17:52 26.52355 33.46821 24094 ft 380 kts 18°
2026-05-05 17:52 26.54762 33.48020 23744 ft 378 kts 18°
2026-05-05 17:52 26.57157 33.49215 23389 ft 376 kts 18°
2026-05-05 17:53 26.59539 33.50404 23036 ft 374 kts 18°
2026-05-05 17:53 26.61913 33.51590 22688 ft 372 kts 18°
2026-05-05 17:53 26.64270 33.52769 22335 ft 370 kts 18°
2026-05-05 17:53 26.66615 33.53942 21984 ft 369 kts 18°
2026-05-05 17:54 26.68949 33.55112 21641 ft 367 kts 18°
2026-05-05 17:54 26.71277 33.56277 21297 ft 365 kts 18°
2026-05-05 17:54 26.73586 33.57434 20942 ft 363 kts 18°
2026-05-05 17:54 26.75889 33.58588 20597 ft 361 kts 18°
2026-05-05 17:55 26.78177 33.59735 20248 ft 360 kts 18°
2026-05-05 17:55 26.80455 33.60876 19927 ft 358 kts 18°
2026-05-05 17:55 26.82721 33.62011 19640 ft 355 kts 18°
2026-05-05 17:55 26.84979 33.63139 19290 ft 355 kts 18°
2026-05-05 17:56 26.87228 33.64263 18962 ft 353 kts 18°
2026-05-05 17:56 26.89463 33.65380 18606 ft 352 kts 18°
2026-05-05 17:56 26.91692 33.66496 18273 ft 350 kts 18°
2026-05-05 17:56 26.93909 33.67602 17947 ft 348 kts 18°
2026-05-05 17:57 26.96093 33.68695 17600 ft 348 kts 18°
2026-05-05 17:57 26.98293 33.69798 17252 ft 345 kts 18°
2026-05-05 17:57 27.00479 33.70897 16924 ft 343 kts 18°
2026-05-05 17:57 27.02649 33.71987 16594 ft 341 kts 18°
2026-05-05 17:58 27.04809 33.73071 16259 ft 339 kts 18°
2026-05-05 17:58 27.06959 33.74151 15923 ft 338 kts 18°
2026-05-05 17:58 27.09103 33.75227 15596 ft 336 kts 18°
2026-05-05 17:58 27.11230 33.76296 15265 ft 334 kts 18°
2026-05-05 17:59 27.13349 33.77361 14936 ft 333 kts 18°
2026-05-05 17:59 27.15458 33.78421 14604 ft 331 kts 19°
2026-05-05 17:59 27.17557 33.79477 14279 ft 330 kts 18°
2026-05-05 17:59 27.19631 33.80568 13959 ft 329 kts 20°
2026-05-05 18:00 27.21675 33.81709 13644 ft 327 kts 21°
2026-05-05 18:00 27.23705 33.82858 13318 ft 326 kts 21°
2026-05-05 18:00 27.25723 33.84001 12996 ft 324 kts 21°
2026-05-05 18:00 27.27733 33.85133 12672 ft 323 kts 21°
2026-05-05 18:01 27.29737 33.86261 12350 ft 321 kts 21°
2026-05-05 18:01 27.31735 33.87383 12025 ft 320 kts 21°
2026-05-05 18:01 27.33722 33.88498 11698 ft 319 kts 21°
2026-05-05 18:01 27.35701 33.89608 11392 ft 317 kts 22°
2026-05-05 18:02 27.37669 33.90711 11076 ft 315 kts 22°
2026-05-05 18:02 27.39625 33.91807 10759 ft 313 kts 22°
2026-05-05 18:02 27.41569 33.92897 10456 ft 311 kts 23°
2026-05-05 18:02 27.43497 33.93978 10183 ft 308 kts 24°
2026-05-05 18:03 27.45381 33.95037 10053 ft 299 kts 24°
2026-05-05 18:03 27.47225 33.96072 9818 ft 295 kts 24°
2026-05-05 18:03 27.49056 33.97101 9520 ft 293 kts 25°
2026-05-05 18:03 27.50876 33.98122 9232 ft 292 kts 25°
2026-05-05 18:04 27.52686 33.99145 8922 ft 291 kts 27°
2026-05-05 18:04 27.54428 34.00322 8512 ft 293 kts 32°
2026-05-05 18:04 27.56136 34.01595 8114 ft 295 kts 33°
2026-05-05 18:04 27.57843 34.02886 7706 ft 297 kts 33°
2026-05-05 18:05 27.59558 34.04178 7282 ft 294 kts 32°
2026-05-05 18:05 27.61245 34.05438 6854 ft 287 kts 32°
2026-05-05 18:05 27.62898 34.06666 6446 ft 282 kts 32°
2026-05-05 18:05 27.64527 34.07872 6054 ft 277 kts 32°
2026-05-05 18:06 27.66123 34.09053 5661 ft 272 kts 32°
2026-05-05 18:06 27.67162 34.09820 5399 ft 268 kts 31°
2026-05-05 18:06 27.69208 34.11330 4928 ft 265 kts 31°
2026-05-05 18:06 27.70756 34.12473 4560 ft 267 kts 31°
2026-05-05 18:07 27.72302 34.13614 4177 ft 265 kts 30°
2026-05-05 18:07 27.73817 34.14736 3949 ft 254 kts 30°
2026-05-05 18:07 27.75253 34.15835 3785 ft 247 kts 32°
2026-05-05 18:07 27.76589 34.17036 3649 ft 243 kts 37°
2026-05-05 18:08 27.77834 34.18296 3502 ft 237 kts 38°
2026-05-05 18:08 27.79021 34.19544 3368 ft 229 kts 38°
2026-05-05 18:08 27.80167 34.20751 3237 ft 221 kts 38°
2026-05-05 18:08 27.81274 34.21915 3118 ft 212 kts 38°
2026-05-05 18:09 27.82321 34.23015 2989 ft 199 kts 38°
2026-05-05 18:09 27.83279 34.24072 2909 ft 185 kts 39°
2026-05-05 18:09 27.84206 34.24976 2821 ft 170 kts 35°
2026-05-05 18:09 27.85064 34.25871 2725 ft 180 kts 37°
2026-05-05 18:10 27.86081 34.26946 2636 ft 213 kts 39°
2026-05-05 18:10 27.87128 34.28057 2601 ft 200 kts 38°
2026-05-05 18:10 27.88109 34.29092 2421 ft 186 kts 37°
2026-05-05 18:10 27.89012 34.30041 2198 ft 168 kts 37°
2026-05-05 18:11 27.89820 34.30890 2037 ft 151 kts 38°
2026-05-05 18:11 27.90577 34.31683 1823 ft 146 kts 37°
2026-05-05 18:11 27.91333 34.32473 1630 ft 149 kts 38°
2026-05-05 18:11 27.92091 34.33269 1426 ft 148 kts 38°
2026-05-05 18:12 27.92846 34.34062 1228 ft 148 kts 38°
2026-05-05 18:12 27.93605 34.34860 1028 ft 150 kts 39°
2026-05-05 18:12 27.94370 34.35662 825 ft 150 kts 39°
2026-05-05 18:12 27.95122 34.36467 671 ft 146 kts 39°
2026-05-05 18:13 27.95890 34.37241 481 ft 151 kts 38°
2026-05-05 18:13 27.96655 34.38046 282 ft 151 kts 41°
2026-05-05 18:13 27.97405 34.38829 182 ft 137 kts 40°
2026-05-05 18:13 27.98048 34.39477 174 ft 105 kts 43°
2026-05-05 18:14 27.98468 34.39934 172 ft 55 kts 42°
2026-05-05 18:14 27.98630 34.40104 172 ft 29 kts 42°
2026-05-05 18:14 27.98777 34.40251 173 ft 27 kts 41°
2026-05-05 18:14 27.98822 34.40295 173 ft 6 kts 41°
2026-05-05 18:15 27.98842 34.40316 174 ft 6 kts 41°
2026-05-05 18:15 27.98899 34.40357 174 ft 10 kts
2026-05-05 18:15 27.98939 34.40327 173 ft 14 kts 311°
2026-05-05 18:15 27.99006 34.40209 173 ft 21 kts 262°
2026-05-05 18:16 27.98891 34.40077 173 ft 25 kts 223°
2026-05-05 18:16 27.98762 34.39941 173 ft 25 kts 223°
2026-05-05 18:16 27.98640 34.39812 173 ft 23 kts 223°
2026-05-05 18:16 27.98523 34.39691 173 ft 22 kts 222°
2026-05-05 18:17 27.98423 34.39588 173 ft 14 kts 223°
2026-05-05 18:17 27.98374 34.39537 173 ft 9 kts 217°
2026-05-05 18:17 27.98310 34.39476 173 ft 14 kts 221°
2026-05-05 18:17 27.98291 34.39385 171 ft 14 kts 311°
2026-05-05 18:18 27.98361 34.39302 171 ft 16 kts 314°
2026-05-05 18:18 27.98340 34.39197 171 ft 17 kts 223°
2026-05-05 18:18 27.98259 34.39116 171 ft 12 kts 221°
2026-05-05 18:18 27.98236 34.39092 171 ft 1 kts 223°
2026-05-05 18:19 27.98233 34.39089 171 ft 1 kts 223°
2026-05-05 18:19 27.98227 34.39083 171 ft 2 kts 223°
2026-05-05 18:19 27.98224 34.39079 171 ft 1 kts 224°
2026-05-05 18:19 27.98193 34.39046 171 ft 15 kts 224°
2026-05-05 18:20 27.98123 34.38994 171 ft 9 kts 149°
2026-05-05 18:20 27.98102 34.39019 171 ft 1 kts 132°
2026-05-05 18:20 27.98101 34.39020 171 ft 0 kts 132°